{"data":{"norad_id":67822,"epoch":"2026-05-25T03:27:09.517824Z","epoch_age_seconds":73051,"freshness":"FRESH","line1":"1 67822U 26033B   26145.14386016  .00010362  00000+0  38544-3 0  9994","line2":"2 67822  43.0003 195.5525 0001420 246.1483 113.9220 15.27589022 16369","mean_motion":15.27589022,"eccentricity":0.000142,"inclination_deg":43.0003,"raan_deg":195.5525,"arg_perigee_deg":246.1483,"mean_anomaly_deg":113.922,"bstar":0.00038544,"rev_number":1636,"period_min":94.266191970578,"perigee_km":482.04779646946,"apogee_km":483.99636564848,"semimajor_km":6861.159081059,"source":"CELESTRAK","updated_at":"2026-05-25T13:38:21.697381Z"}}